GW1317 Weather Reports


time (UTC)temp
F
wind
direction
speed
knots
gust
knots
rain 1hr
in
rain 24hr
in
rain mn
in
humidity
%
barometer
mb
20221207233051 54 0 0.0 1.7 0.00 0.00 0.00 93 1011.2
20221207232533 54 0 0.0 0.9 0.00 0.00 0.00 93 1011.3
20221207232033 54 0 0.0 0.0 0.00 0.00 0.00 93 1011.4
20221207231538 53 0 0.0 0.0 0.00 0.00 0.00 93 1011.4
20221207231035 53 0 0.0 1.7 0.00 0.00 0.00 92 1011.4
20221207230533 53 0 0.0 1.7 0.00 0.00 0.00 92 1011.5
20221207230048 54 0 0.0 2.6 0.00 0.00 0.00 92 1011.4
20221207225530 54 0 0.0 3.5 0.00 0.00 0.00 92 1011.5
20221207225034 54 0 0.0 3.5 0.00 0.00 0.00 92 1011.4
20221207224545 54 348 0.0 2.6 0.00 0.00 0.00 92 1011.3
20221207224033 54 0 0.0 0.9 0.00 0.00 0.00 92 1011.3
20221207223533 54 0 0.0 1.7 0.00 0.00 0.00 91 1011.4
20221207223044 54 0 0.0 1.7 0.00 0.00 0.00 91 1011.5
20221207222533 54 0 0.0 1.7 0.00 0.00 0.00 91 1011.5
20221207222032 54 0 0.0 1.7 0.00 0.00 0.00 91 1011.4
20221207221545 54 0 0.0 1.7 0.00 0.00 0.00 91 1011.6
20221207221034 55 0 0.0 2.6 0.00 0.00 0.00 91 1011.6
20221207220531 55 11 0.0 2.6 0.00 0.00 0.00 91 1011.5
20221207220109 55 0 0.0 2.6 0.00 0.00 0.00 91 1011.5
20221207215532 55 0 0.0 2.6 0.00 0.00 0.00 91 1011.5
20221207215033 55 0 0.0 2.6 0.00 0.00 0.00 91 1011.6
20221207214539 55 0 0.0 2.6 0.00 0.00 0.00 91 1011.7
20221207214031 55 0 0.0 1.7 0.00 0.00 0.00 91 1011.8
20221207213533 55 336 0.0 2.6 0.00 0.00 0.00 91 1011.8
20221207213042 55 0 0.0 2.6 0.00 0.00 0.00 91 1011.9
20221207212530 56 0 0.0 1.7 0.00 0.00 0.00 91 1011.8
20221207212032 56 0 0.0 1.7 0.00 0.00 0.00 91 1012.0
20221207211539 56 0 0.0 1.7 0.00 0.00 0.00 91 1011.8
20221207211034 56 0 0.0 2.6 0.00 0.00 0.00 91 1011.9
20221207210533 56 0 0.0 2.6 0.00 0.00 0.00 91 1011.9
20221207210045 56 0 0.0 3.5 0.00 0.00 0.00 91 1012.0
20221207205535 56 0 0.0 3.5 0.00 0.00 0.00 91 1011.9
20221207205033 56 0 0.0 2.6 0.00 0.00 0.00 91 1012.0
20221207204539 56 330 0.0 1.7 0.00 0.00 0.00 91 1012.0
20221207204033 56 0 0.0 0.9 0.00 0.00 0.00 91 1011.9
20221207203533 56 0 0.0 1.7 0.00 0.00 0.00 91 1011.9
20221207203039 56 0 0.0 2.6 0.00 0.00 0.00 91 1012.0
20221207202532 56 0 0.9 2.6 0.00 0.00 0.00 91 1012.0
20221207202035 56 0 0.0 0.0 0.00 0.00 0.00 91 1011.9
20221207201558 56 0 0.0 0.0 0.00 0.00 0.00 90 1011.8
20221207201029 56 0 0.0 0.0 0.00 0.00 0.00 90 1011.9
20221207200533 57 0 0.0 0.0 0.00 0.00 0.00 90 1012.0
20221207200048 57 0 0.0 0.0 0.00 0.00 0.00 90 1011.9
20221207195534 57 0 0.0 0.0 0.00 0.00 0.00 90 1012.0
20221207195031 57 0 0.0 0.0 0.00 0.00 0.00 91 1012.0
20221207194546 57 0 0.0 0.0 0.00 0.00 0.00 91 1011.9
20221207194034 57 0 0.0 0.0 0.00 0.00 0.00 91 1011.8
20221207193533 57 0 0.0 0.0 0.00 0.00 0.00 91 1011.8
20221207193044 57 0 0.0 0.0 0.00 0.00 0.00 91 1011.9
20221207192533 57 0 0.0 0.0 0.00 0.00 0.00 91 1011.9
20221207192035 57 0 0.0 0.0 0.00 0.00 0.00 90 1011.8
20221207191547 57 0 0.0 0.0 0.00 0.00 0.00 90 1011.8
20221207191033 57 0 0.0 0.0 0.00 0.00 0.00 90 1011.9
20221207190531 57 0 0.0 0.0 0.00 0.00 0.00 90 1011.8
20221207190054 57 0 0.0 0.0 0.00 0.00 0.00 90 1011.8
20221207185536 57 0 0.0 0.0 0.00 0.00 0.00 90 1011.8
20221207185030 58 0 0.0 0.0 0.00 0.00 0.00 90 1011.8
20221207184542 58 0 0.0 0.0 0.00 0.00 0.00 89 1011.6
20221207184033 58 0 0.0 0.0 0.00 0.00 0.00 89 1011.6
20221207183532 58 0 0.0 0.0 0.00 0.00 0.00 89 1011.6
20221207183050 58 0 0.0 0.0 0.00 0.00 0.00 89 1011.7
20221207182533 58 0 0.0 0.0 0.00 0.00 0.00 89 1011.8
20221207182033 58 0 0.0 0.0 0.00 0.00 0.00 89 1011.7
20221207181551 58 0 0.0 0.0 0.00 0.00 0.00 89 1011.6
20221207181033 58 0 0.0 0.0 0.00 0.00 0.00 89 1011.7
20221207180532 58 0 0.0 0.0 0.00 0.00 0.00 89 1011.7
20221207180040 58 0 0.0 0.0 0.00 0.00 0.00 89 1011.6
20221207175534 59 0 0.0 0.0 0.00 0.00 0.00 88 1011.6
20221207175033 59 0 0.0 0.0 0.00 0.00 0.00 88 1011.7
20221207174542 59 0 0.0 0.0 0.00 0.00 0.00 88 1011.7
20221207174033 59 0 0.0 0.0 0.00 0.00 0.00 88 1011.6
20221207173533 59 0 0.0 0.0 0.00 0.00 0.00 88 1011.6
20221207173044 59 0 0.0 0.0 0.00 0.00 0.00 88 1011.7
20221207172532 59 0 0.0 0.0 0.00 0.00 0.00 88 1011.7
20221207172034 59 0 0.0 0.0 0.00 0.00 0.00 88 1011.7
20221207171538 59 0 0.0 0.0 0.00 0.00 0.00 88 1011.7
20221207171031 59 0 0.0 0.9 0.00 0.00 0.00 88 1011.7
20221207170533 59 0 0.0 1.7 0.00 0.00 0.00 88 1011.7
20221207170049 59 0 0.0 2.6 0.00 0.00 0.00 87 1011.5
20221207165533 60 0 0.0 2.6 0.00 0.00 0.00 87 1011.6
20221207165030 60 115 0.0 3.5 0.00 0.00 0.00 87 1011.6
20221207164545 60 115 0.9 3.5 0.00 0.00 0.00 87 1011.7
20221207164031 60 135 0.9 4.3 0.00 0.00 0.00 87 1011.7
20221207163532 60 126 0.9 4.3 0.00 0.00 0.00 87 1011.6
20221207163043 60 147 0.9 3.5 0.00 0.00 0.00 86 1011.7
20221207162534 60 156 0.9 5.2 0.00 0.00 0.00 86 1011.7
20221207162033 60 133 0.0 5.2 0.00 0.00 0.00 86 1011.7
20221207161538 60 0 2.6 5.2 0.00 0.00 0.00 86 1011.8
20221207161032 60 135 1.7 4.3 0.00 0.00 0.00 85 1011.7
20221207160533 61 100 1.7 5.2 0.00 0.00 0.00 85 1011.7
20221207160045 61 148 0.9 6.1 0.00 0.00 0.00 85 1011.7
20221207155531 61 140 2.6 6.1 0.00 0.00 0.00 85 1011.8
20221207155031 61 136 1.7 6.1 0.00 0.00 0.00 84 1011.7
20221207154539 61 130 1.7 7.0 0.00 0.00 0.00 84 1011.8
20221207154033 61 143 2.6 7.0 0.00 0.00 0.00 83 1011.7
20221207153533 62 121 2.6 6.1 0.00 0.00 0.00 82 1011.7
20221207153043 62 113 1.7 6.1 0.00 0.00 0.00 81 1011.7
20221207152533 62 101 1.7 6.1 0.00 0.00 0.00 80 1011.7
20221207152032 63 106 0.9 6.1 0.00 0.00 0.00 79 1011.6
20221207151539 63 80 1.7 6.1 0.00 0.00 0.00 79 1011.8
20221207151033 63 109 1.7 6.1 0.00 0.00 0.00 78 1011.8
20221207150533 63 107 1.7 6.1 0.00 0.00 0.00 77 1011.9
20221207150037 63 150 1.7 6.1 0.00 0.00 0.00 77 1011.9
20221207145531 63 146 3.5 6.1 0.00 0.00 0.00 76 1011.8
20221207145033 64 168 3.5 6.1 0.00 0.00 0.00 75 1011.8
20221207144541 64 139 1.7 6.1 0.00 0.00 0.00 75 1011.8
20221207144030 64 101 1.7 6.1 0.00 0.00 0.00 75 1011.7
20221207143532 64 135 2.6 6.1 0.00 0.00 0.00 75 1011.7
20221207143039 64 99 1.7 5.2 0.00 0.00 0.00 75 1011.7
20221207142533 64 0 1.7 6.1 0.00 0.00 0.00 75 1011.7
20221207142033 65 140 0.9 6.1 0.00 0.00 0.00 75 1011.8
20221207141544 65 142 1.7 6.1 0.00 0.00 0.00 74 1011.7
20221207141031 65 126 1.7 5.2 0.00 0.00 0.00 74 1011.8
20221207140533 65 162 0.9 4.3 0.00 0.00 0.00 74 1011.8
20221207140049 65 153 1.7 5.2 0.00 0.00 0.00 73 1011.7
20221207135534 65 138 0.9 5.2 0.00 0.00 0.00 74 1011.9
20221207135033 65 146 0.9 3.5 0.00 0.00 0.00 73 1012.0
20221207134537 64 0 0.0 6.1 0.00 0.00 0.00 74 1011.9
20221207134035 64 146 1.7 6.1 0.00 0.00 0.00 73 1012.1
20221207133532 65 153 1.7 6.1 0.00 0.00 0.00 73 1011.9
20221207133054 65 104 0.0 2.6 0.00 0.00 0.00 73 1012.0
20221207132533 64 0 0.9 5.2 0.00 0.00 0.00 74 1012.0
20221207132033 64 0 0.0 5.2 0.00 0.00 0.00 74 1012.0
20221207131550 64 107 0.9 5.2 0.00 0.00 0.00 75 1012.1
20221207131033 64 127 0.9 2.6 0.00 0.00 0.00 75 1012.3
20221207130533 64 0 0.0 2.6 0.00 0.00 0.00 76 1012.4
20221207130045 64 134 0.0 2.6 0.00 0.00 0.00 75 1012.7
20221207125534 64 0 0.0 2.6 0.00 0.00 0.00 76 1012.6
20221207125032 64 134 0.0 4.3 0.00 0.00 0.00 75 1012.7
20221207124542 64 0 0.9 4.3 0.00 0.00 0.00 75 1012.9
20221207124032 65 0 0.0 2.6 0.00 0.00 0.00 75 1012.9
20221207123533 64 0 0.0 2.6 0.00 0.00 0.00 76 1012.9
20221207123038 64 0 0.0 0.9 0.00 0.00 0.00 76 1012.9
20221207122534 64 0 0.0 1.7 0.00 0.00 0.00 77 1013.1
20221207122032 63 0 0.0 2.6 0.00 0.00 0.00 77 1013.2
20221207121559 64 0 0.0 2.6 0.00 0.00 0.00 77 1013.2
20221207121033 64 111 0.0 1.7 0.00 0.00 0.00 77 1013.2
20221207120533 63 0 0.0 1.7 0.00 0.00 0.00 78 1013.3
20221207120046 63 0 0.0 1.7 0.00 0.00 0.00 77 1013.3
20221207115533 63 0 0.0 2.6 0.00 0.00 0.00 78 1013.5
20221207115031 63 0 0.0 3.5 0.00 0.00 0.00 79 1013.6
20221207114551 62 117 0.0 4.3 0.00 0.00 0.00 80 1013.6
20221207114032 62 137 1.7 4.3 0.00 0.00 0.00 80 1013.7
20221207113534 62 160 0.9 4.3 0.00 0.00 0.00 81 1013.6
20221207113047 62 155 1.7 3.5 0.00 0.00 0.00 81 1013.7
20221207112533 62 0 0.0 3.5 0.00 0.00 0.00 82 1013.6
20221207112033 61 140 1.7 4.3 0.00 0.00 0.00 81 1013.6
20221207111548 62 0 0.0 4.3 0.00 0.00 0.00 81 1013.8
20221207111034 62 152 0.9 4.3 0.00 0.00 0.00 81 1013.8
20221207110534 62 0 0.0 1.7 0.00 0.00 0.00 82 1014.0
20221207110052 62 0 0.0 2.6 0.00 0.00 0.00 81 1014.2
20221207105534 62 0 0.0 2.6 0.00 0.00 0.00 82 1014.2
20221207105033 62 0 0.0 2.6 0.00 0.00 0.00 82 1014.2
20221207104542 61 0 0.0 0.9 0.00 0.00 0.00 83 1014.3
20221207104034 61 0 0.0 0.9 0.00 0.00 0.00 84 1014.4
20221207103533 60 0 0.0 0.0 0.00 0.00 0.00 84 1014.4
20221207103053 60 0 0.0 0.9 0.00 0.00 0.00 84 1014.5
20221207102533 60 0 0.0 1.7 0.00 0.00 0.00 84 1014.6
20221207102033 59 0 0.0 1.7 0.00 0.00 0.00 84 1014.6
20221207101541 59 0 0.0 1.7 0.00 0.00 0.00 84 1014.6
20221207101033 59 0 0.0 2.6 0.00 0.00 0.00 83 1014.6
20221207100533 58 0 0.0 2.6 0.00 0.00 0.00 84 1014.7
20221207100047 58 11 0.0 2.6 0.00 0.00 0.00 84 1014.8
20221207095533 57 0 0.0 2.6 0.00 0.00 0.00 84 1014.7
20221207095035 57 0 0.0 2.6 0.00 0.00 0.00 85 1015.0
20221207094538 56 0 0.0 2.6 0.00 0.00 0.00 85 1014.9
20221207094034 56 0 0.0 2.6 0.00 0.00 0.00 85 1014.9
20221207093534 56 355 0.0 1.7 0.00 0.00 0.00 86 1014.9
20221207093057 55 0 0.0 1.7 0.00 0.00 0.00 87 1014.8
20221207092533 55 0 0.0 1.7 0.00 0.00 0.00 88 1014.7
20221207092033 55 0 0.0 0.9 0.00 0.00 0.00 89 1014.7
20221207091538 55 0 0.0 0.9 0.00 0.00 0.00 89 1014.7
20221207091035 55 0 0.0 0.0 0.00 0.00 0.00 89 1014.7
20221207090535 54 0 0.0 0.0 0.00 0.00 0.00 89 1014.7
20221207090044 54 0 0.0 0.0 0.00 0.00 0.00 89 1014.6
20221207085532 54 0 0.0 0.0 0.00 0.00 0.00 89 1014.6
20221207085033 54 0 0.0 0.9 0.00 0.00 0.00 90 1014.7
20221207084551 54 0 0.0 0.9 0.00 0.00 0.00 90 1014.6
20221207084033 54 0 0.0 0.9 0.00 0.00 0.00 90 1014.5
20221207083533 53 0 0.0 0.9 0.00 0.00 0.00 90 1014.6
20221207083042 53 0 0.0 0.0 0.00 0.00 0.00 91 1014.5
20221207082533 53 0 0.0 1.7 0.00 0.00 0.00 90 1014.6
20221207082033 53 0 0.0 3.5 0.00 0.00 0.00 90 1014.4
20221207081550 53 0 0.0 3.5 0.00 0.00 0.00 90 1014.3
20221207081034 53 317 0.9 3.5 0.00 0.00 0.00 90 1014.3
20221207080533 53 340 0.9 2.6 0.00 0.00 0.00 90 1014.2
20221207080054 53 0 0.9 2.6 0.00 0.00 0.00 90 1014.3
20221207075534 52 355 0.0 2.6 0.00 0.00 0.00 91 1014.2
20221207075033 52 0 0.0 2.6 0.00 0.00 0.00 91 1014.2
20221207074540 52 0 0.0 2.6 0.00 0.00 0.00 91 1014.2
20221207074033 52 0 0.0 2.6 0.00 0.00 0.00 91 1014.1
20221207073533 52 36 0.0 1.7 0.00 0.00 0.00 92 1014.0
20221207073052 52 0 0.0 3.5 0.00 0.00 0.00 92 1014.1
20221207072533 52 0 0.0 3.5 0.00 0.00 0.00 92 1014.1
20221207072032 52 355 0.9 3.5 0.00 0.00 0.00 92 1014.1
20221207071539 52 347 0.0 2.6 0.00 0.00 0.00 92 1014.1
20221207071034 52 15 0.0 3.5 0.00 0.00 0.00 92 1014.1
20221207070533 52 0 0.9 3.5 0.00 0.00 0.00 92 1014.1
20221207070051 52 0 0.0 2.6 0.00 0.00 0.00 92 1014.2
20221207065535 52 0 0.0 1.7 0.00 0.00 0.00 92 1014.1
20221207065033 52 0 0.0 1.7 0.00 0.00 0.00 92 1014.3
20221207064540 52 0 0.0 1.7 0.00 0.00 0.00 92 1014.2
20221207064034 52 0 0.0 2.6 0.00 0.00 0.00 92 1014.1
20221207063536 52 0 0.0 2.6 0.00 0.00 0.00 92 1014.2
20221207063048 52 0 0.0 2.6 0.00 0.00 0.00 92 1014.1
20221207062533 52 0 0.9 2.6 0.00 0.00 0.00 92 1014.2
20221207062034 52 340 0.0 1.7 0.00 0.00 0.00 92 1014.1
20221207061545 52 0 0.0 0.9 0.00 0.00 0.00 92 1014.1
20221207061031 52 0 0.0 0.9 0.00 0.00 0.00 92 1014.0
20221207060534 52 0 0.0 1.7 0.00 0.00 0.00 92 1014.1
20221207060043 52 0 0.0 1.7 0.00 0.00 0.00 93 1014.0
20221207055533 52 340 0.0 1.7 0.00 0.00 0.00 93 1014.0
20221207055036 52 0 0.0 0.0 0.00 0.00 0.00 93 1013.9
20221207054544 52 0 0.0 0.9 0.00 0.00 0.00 93 1013.9
20221207054033 52 0 0.0 0.9 0.00 0.00 0.00 93 1013.9
20221207053533 52 0 0.0 0.9 0.00 0.00 0.00 93 1013.9
20221207053053 52 0 0.0 1.7 0.00 0.00 0.00 93 1013.8
20221207052533 52 0 0.0 2.6 0.00 0.00 0.00 93 1013.8
20221207052033 52 0 0.0 2.6 0.00 0.00 0.00 93 1013.8
20221207051544 52 0 0.0 2.6 0.00 0.00 0.00 93 1013.8
20221207051033 52 340 0.0 2.6 0.00 0.00 0.00 93 1013.9
20221207050533 52 340 0.0 1.7 0.00 0.00 0.00 93 1013.8
20221207050053 52 0 0.0 1.7 0.00 0.00 0.00 93 1013.7
20221207045534 52 0 0.0 1.7 0.00 0.00 0.00 93 1013.8
20221207045033 52 0 0.0 1.7 0.00 0.00 0.00 93 1013.8
20221207044538 52 0 0.0 1.7 0.00 0.00 0.00 93 1013.8
20221207044034 52 0 0.0 1.7 0.00 0.00 0.00 93 1013.8
20221207043533 52 0 0.0 0.9 0.00 0.00 0.00 93 1013.8
20221207043042 52 0 0.0 1.7 0.00 0.00 0.00 92 1013.8
20221207042531 52 0 0.0 2.6 0.00 0.00 0.00 92 1013.8
20221207042035 52 0 0.0 2.6 0.00 0.00 0.00 92 1013.8
20221207041541 52 340 0.0 1.7 0.00 0.00 0.00 92 1013.9
20221207041033 52 340 0.0 1.7 0.00 0.00 0.00 92 1013.9
20221207040533 52 340 0.0 1.7 0.00 0.00 0.00 92 1013.8
20221207040042 52 0 0.0 1.7 0.00 0.00 0.00 92 1013.9
20221207035536 53 0 0.0 2.6 0.00 0.00 0.00 92 1013.9
20221207035033 53 329 0.0 2.6 0.00 0.00 0.00 92 1014.0
20221207034544 53 329 0.0 3.5 0.00 0.00 0.00 92 1014.0
20221207034032 53 344 0.9 3.5 0.00 0.00 0.00 92 1014.0
20221207033533 53 325 0.9 3.5 0.00 0.00 0.00 92 1014.2
20221207033038 53 348 0.9 3.5 0.00 0.00 0.00 92 1014.1
20221207032533 53 11 0.9 3.5 0.00 0.00 0.00 92 1014.2
20221207032032 53 344 0.0 3.5 0.00 0.00 0.00 92 1014.2
20221207031537 53 0 0.0 4.3 0.00 0.00 0.00 92 1014.2
20221207031034 53 344 0.9 4.3 0.00 0.00 0.00 92 1014.1
20221207030533 53 336 1.7 4.3 0.00 0.00 0.00 92 1014.2
20221207030105 53 332 0.0 2.6 0.00 0.00 0.00 92 1014.3
20221207025530 53 330 0.0 2.6 0.00 0.00 0.00 92 1014.2
20221207025031 53 0 0.0 2.6 0.00 0.00 0.00 92 1014.3
20221207024535 53 0 0.0 2.6 0.00 0.00 0.00 92 1014.4
20221207024029 53 0 0.0 2.6 0.00 0.00 0.00 92 1014.4
20221207023530 53 0 0.0 0.9 0.00 0.00 0.00 92 1014.5
20221207023045 53 0 0.0 0.9 0.00 0.00 0.00 92 1014.5
20221207022533 54 0 0.0 2.6 0.00 0.00 0.00 91 1014.5
20221207022032 54 0 0.0 2.6 0.00 0.00 0.00 91 1014.5
20221207021542 54 295 0.9 2.6 0.00 0.00 0.00 91 1014.5
20221207021033 54 318 0.0 1.7 0.00 0.00 0.00 92 1014.6
20221207020532 54 0 0.0 0.9 0.00 0.00 0.00 92 1014.6
20221207020039 54 0 0.0 0.9 0.00 0.00 0.00 92 1014.6
20221207015530 54 0 0.0 0.9 0.00 0.00 0.00 92 1014.6
20221207015033 54 0 0.0 0.9 0.00 0.00 0.00 92 1014.5
20221207014543 54 0 0.0 0.9 0.00 0.00 0.00 92 1014.6
20221207014031 54 0 0.0 2.6 0.00 0.00 0.00 92 1014.6
20221207013531 54 0 0.0 2.6 0.00 0.00 0.00 92 1014.5
20221207013048 54 0 0.0 1.7 0.00 0.00 0.00 92 1014.5
20221207012530 54 0 0.0 1.7 0.00 0.00 0.00 92 1014.6
20221207012033 54 0 0.0 1.7 0.00 0.00 0.00 92 1014.6
20221207011548 54 0 0.0 1.7 0.00 0.00 0.00 92 1014.7
20221207011029 54 0 0.0 0.0 0.00 0.00 0.00 91 1014.7
20221207010531 54 0 0.0 0.0 0.00 0.00 0.00 91 1014.8
20221207010048 54 0 0.0 0.0 0.00 0.00 0.00 91 1014.8
20221207005532 54 0 0.0 0.0 0.00 0.00 0.00 91 1014.8
20221207005031 54 0 0.0 0.0 0.00 0.00 0.00 91 1014.9
20221207004538 54 0 0.0 0.0 0.00 0.00 0.00 91 1014.8
20221207004028 53 0 0.0 0.0 0.00 0.00 0.00 91 1014.9
20221207003531 53 0 0.0 0.0 0.00 0.00 0.00 91 1014.9
20221207003044 53 0 0.0 0.0 0.00 0.00 0.00 91 1015.1
20221207002531 54 0 0.0 0.9 0.00 0.00 0.00 91 1015.1
20221207002029 53 0 0.0 0.9 0.00 0.00 0.00 91 1015.1
20221207001547 54 0 0.0 1.7 0.00 0.00 0.00 91 1015.1
20221207001033 54 0 0.0 1.7 0.00 0.00 0.00 91 1015.1
20221207000532 54 0 0.0 0.9 0.00 0.00 0.00 91 1015.3
20221207000052 54 0 0.0 1.7 0.00 0.00 0.00 91 1015.3
20221206235653 54 0 0.0 2.6 0.00 0.00 0.00 92 1015.4
20221206235034 54 0 0.0 2.6 0.00 0.00 0.00 92 1015.3
20221206234550 53 335 0.0 1.7 0.00 0.00 0.00 92 1015.4
20221206234035 53 329 0.0 1.7 0.00 0.00 0.00 92 1015.4
20221206233530 53 0 0.0 1.7 0.00 0.00 0.00 91 1015.5